PRAETORIAN SDA_620

Last updated on Mon Sep 07 2026 00:03:40 GMT+0000 (Coordinated Universal Time)

1 65583U 25203U 26249.63098390 .00000098 00000+0 79042-4 0 9992 2 65583 81.3019 295.5035 0006866 336.4181 23.6659 13.83211394 49955
UTC large
Height (km)
Speed (km/s)
/
Latitude / Longitude
Inclination (degrees)
Orbital Period (minutes)
Azimuth
Elevation
Range (km)
Doppler Factor

Next 0 passes for location: London (51.5072 / 0.1276)

No passes found over London.
PRAETORIAN SDA_620